Weather Roundup
Issued by NWS

Home | Current Version | Previous Version | Text Only | Print | Product List | Glossary On
Versions: 1 2 3 4 5 6 7 8 9 10 11 12 13 14 15 16 17 18 19 20 21 22 23 24 25 26 27 28 29 30 31 32 33 34 35 36 37 38 39 40 41 42 43 44 45 46 47 48 49 50
000
NZUS93 KARX 041510
HRRWXR

CURRENT HOURLY OBSERVATIONS ACROSS
MUCH OF THE UPPER MISSISSIPPI VALLEY
NATIONAL WEATHER SERVICE LA CROSSE WI
900 AM CST WED MAR 04 2015


...SOUTHEAST MINNESOTA...


CITY           SKY/WX    TMP DP  RH WIND       PRES   REMARKS
ROCHESTER      SUNNY      2  -7  66 NW15      30.18R WCI -17
ROCHESTER/MAYO FAIR       2  -7  64 W10       30.19R WCI -13
WINONA         SUNNY      9  -4  56 NW12      30.23R WCI  -6
AUSTIN         SUNNY      3  -6  66 NW14G20   30.20R WCI -15
ALBERT LEA     SUNNY      3  -6  66 NW7       30.20R WCI  -9
DODGE CENTER   SUNNY      1  -6  71 W10       30.17R WCI -14
PRESTON        SUNNY      1  -7  68 NW13      30.17R WCI -17
OWATONNA       SUNNY      3  -6  66 NW13      30.20R WCI -14
FARIBAULT      SUNNY      3  -6  66 W12       30.21R WCI -13
$$

...ELSEWHERE IN MINNESOTA...


CITY           SKY/WX    TMP DP  RH WIND       PRES   REMARKS
MINNEAPOLIS    PTSUNNY    3  -8  60 W10       30.23R WCI -12
INTNL FALLS    PTSUNNY  -10 -18  67 W14       30.05R WCI -31
DULUTH         MOSUNNY   -4 -13  65 NW15      30.02R WCI -25
RED WING       SUNNY      5  -8  56 NW13      30.22R WCI -12
REDWOOD FALLS  CLOUDY     2  -8  63 NW8       30.23R WCI -12
MANKATO        PTSUNNY    3  -6  66 NW10      30.22R WCI -12
FAIRMONT       SUNNY      7  -6  56 W6        30.21R WCI  -3
$$

...SOUTHWEST WISCONSIN...


CITY           SKY/WX    TMP DP  RH WIND       PRES   REMARKS
LA CROSSE      SUNNY      8  -4  58 NW14      30.20R WCI  -8
PRAIRIE DU CHI SUNNY      8  -5  54 NW12G21   30.21R WCI  -7
BOSCOBEL       SUNNY     10  -5  50 NW14G20   30.19R WCI  -6
LONE ROCK      SUNNY     10  -2  58 W15       30.16R WCI  -7
PLATTEVILLE    SUNNY      9  -1  66 W15       30.14R WCI  -8
FORT MC COY    SUNNY      8  -3  60 W10G16    30.16S WCI  -6
CAMP DOUGLAS   MOSUNNY    7  -2  66 W13       30.13R WCI  -9
VIROQUA        FAIR       5  -5  63 NW15      30.12R WCI -13
WIS DELLS      SUNNY      8  -4  56 W13       30.11R WCI  -8
$$

...ELSEWHERE IN WISCONSIN...


CITY           SKY/WX    TMP DP  RH WIND       PRES   REMARKS
MILWAUKEE      MOSUNNY   15  -1  49 NW15G23   30.07R WCI   0
MADISON        MOSUNNY   12  -4  48 NW16G24   30.11R WCI  -5
GREEN BAY      SUNNY      8  -5  55 W16G24    30.06R WCI -10
EAU CLAIRE     SUNNY      2 -10  57 W13G21    30.17R WCI -15
BLACK RVR FLS  FAIR       6  -6  56 W13G21    30.16R WCI -10
MEDFORD        MOSUNNY    0  -9  65 W14G22    30.04R WCI -19
WAUSAU         SUNNY      2  -8  63 W14       30.05R WCI -16
WIS RAPIDS     SUNNY      5  -7  57 NW16      30.11R WCI -14
MARSHFIELD     SUNNY      2  -7  66 W15       30.08R WCI -17
RICE LAKE      SUNNY     -1  -9  67 W9        30.15R WCI -16
$$

...NORTHEAST IOWA...


CITY           SKY/WX    TMP DP  RH WIND       PRES   REMARKS
DECORAH        SUNNY      5  -8  56 NW10      30.17R WCI -10
MASON CITY     SUNNY      4  -4  69 NW16      30.23R WCI -15
CHARLES CITY   SUNNY      5  -6  61 NW10G18   30.22R WCI -10
OELWEIN        SUNNY      7  -4  61 NW21      30.21R WCI -13
$$

...ELSEWHERE IN IOWA...


CITY           SKY/WX    TMP DP  RH WIND       PRES   REMARKS
DES MOINES     PTSUNNY   15  -2  46 NW12      30.29R WCI   2
IOWA CITY      SUNNY     10  -1  61 NW16      30.26R WCI  -7
FORT DODGE     SUNNY     10  -2  56 NW8       30.25R WCI  -1
$$

...NORTHERN ILLINOIS...


CITY           SKY/WX    TMP DP  RH WIND       PRES   REMARKS
CHICAGO-OHARE  CLOUDY    18   9  68 NW14      30.07R WCI   4
CHICAGO-MIDWAY PTSUNNY   22  11  62 NW15      30.08R WCI   9
MOLINE         PTSUNNY   14   1  56 NW15      30.21R WCI  -1
ROCKFORD       PTSUNNY   13   2  61 NW16      30.14R WCI  -3
PEORIA         CLOUDY    16   3  56 NW10G20   30.18R WCI   4
$$

NOTE: "FAIR" INDICATES FEW OR NO CLOUDS BELOW 12,000 FEET WITH NO
SIGNIFICANT WEATHER AND/OR OBSTRUCTIONS TO VISIBILITY. WIND
SPEEDS ARE IN MILES-PER-HOUR.



USA.gov is the U.S. government's official web portal to all federal, state and local government web resources and services.